Regional Weather Roundup
Issued by NWS Charleston, SC

Current Version | Previous Version | Graphics & Text | Print | Product List | Glossary On
Versions: 1 2 3 4 5 6 7 8 9 10 11 12 13 14 15 16 17 18 19 20 21 22 23 24 25 26 27 28 29 30 31 32 33 34 35 36 37 38 39 40 41 42 43 44 45 46 47 48 49 50
000
ASUS42 KCHS 251612
RWRCHS

REGIONAL WEATHER ROUNDUP
NATIONAL WEATHER SERVICE CHARLESTON SC
1200 PM EDT TUE JUL 25 2017

NOTE: "FAIR" INDICATES FEW OR NO CLOUDS BELOW 12,000 FEET WITH NO
SIGNIFICANT WEATHER AND/OR OBSTRUCTIONS TO VISIBILITY.

NOT ALL STATIONS ARE QUALITY CONTROLLED. USE DATA WITH CAUTION...
ESPECIALLY DEWPOINT OBSERVATIONS.

SCZ027-030-031-034>040-042>050-251700-
...SOUTHEAST SOUTH CAROLINA...

CITY           SKY/WX    TMP DP  RH WIND       PRES   REMARKS
N CHARLESTON   MOSUNNY   90  75  61 N6        30.06S HX 100
WATERFRONT PRK   N/A     85  77  76 VRB3      30.05S HX  95
JOHNS ISLAND     N/A     88  77  70 CALM      30.06S HX 100
PINOPOLIS        N/A     82  75  78 CALM      30.00S
MONCKS CORNER  FAIR      86  75  70 CALM      30.06F HX  95
SUMMERVILLE    FAIR      88  75  66 CALM      30.07F HX  97
BEAUFORT MCAS  CLOUDY    83  77  82 W3        30.08S HX  92
BEAUFORT ARPT  FAIR      82  75  78 SW5       30.07S
HILTON HEAD IS MOSUNNY   86  79  79 SW5       30.08F HX  99
WALTERBORO     MOSUNNY   86  73  66 W5        30.08S HX  93
ALLENDALE      NOT AVBL

...SOUTHERN MIDLANDS AND PEE DEE...

CITY           SKY/WX    TMP DP  RH WIND       PRES   REMARKS
GEORGETOWN     FAIR      86  77  74 CALM      30.07S HX  97
KINGSTREE      FAIR      86  73  66 CALM      30.06S HAZE    HX  93
ORANGEBURG     MOSUNNY   87  75  67 SW5       30.06F HX  96
BARNWELL       FAIR      90  77  66 VRB5      30.07F HX 102
AIKEN          FAIR      88  73  62 NW5       30.11F HX  96
MANNING        FAIR      86  77  74 N12G20    30.06S HX  97
COLUMBIA       MOSUNNY   90  75  61 VRB3      30.05F HX 100
SUMTER         MOSUNNY   88  75  66 CALM      30.04F HX  97
FLORENCE       MOSUNNY   87  77  72 NW5       30.06F HX  99
MYRTLE BEACH   MOSUNNY   88  75  66 NW9       30.06F HX  97
N MYRTLE BEACH MOSUNNY   87  76  69 CALM      30.05F HX  97

$$

GAZ063-065-086>088-099>101-113>116-118-119-134>141-150-251700-
...SOUTHEAST GEORGIA...

CITY           SKY/WX    TMP DP  RH WIND       PRES   REMARKS
SAVANNAH ARPT  CLOUDY    85  73  67 W7        30.08F HX  91
HUNTER AAF     CLOUDY    86  77  73 W3        30.05F HX  96
FORT STEWART   PTSUNNY   86  75  70 SW6       30.06F HX  95
STATESBORO     MOSUNNY   86  75  68 W5        30.09S HX  95
SYLVANIA       MOSUNNY   86  77  74 CALM      30.09S HX  97
CLAXTON        FAIR      87  78  74 SW6       30.09F HX  99

...CSRA...CENTRAL AND FAR SOUTHEAST GEORGIA...

CITY           SKY/WX    TMP DP  RH WIND       PRES   REMARKS
THOMSON        MOSUNNY   87  75  66 W3        30.14S HX  96
AUGUSTA-BUSH   SUNNY     90  75  61 VRB3      30.07S HX 100
AUGUSTA-DANIEL SUNNY     89  70  53 SW5       30.09S HX  94
SWAINSBORO     FAIR      84  73  70 CALM      30.10F HX  91
VIDALIA        MOSUNNY   88  73  62 CALM      30.10S HX  96
EASTMAN        PTSUNNY   86  65  50 SW3       30.12S
HAZLEHURST     FAIR      86  77  75 CALM      30.09S HX  98
ALMA           MOSUNNY   88  75  65 CALM      30.09F HX  97
WAYCROSS       PTSUNNY   90  79  69 NW8       30.10S HX 106
JESUP          NOT AVBL
BAXLEY         FAIR      88  81  79 NW3       30.09F HX 105
BRUNSWICK      PTSUNNY   86  79  79 W6        30.10F HX  99
SAINT SIMONS   MOSUNNY   87  76  69 W7        30.09F HX  97

$$

SCZ027-028-034-036>038-045-046-048>050-GAZ119-141-251700-
...LAKE AND SUPPLEMENTAL COASTAL OBSERVATIONS...

STATION/POSITION TIME  TEMP    WIND        PRES    WAVE   SWELL
                       AIR SEA DIR/SP/G            HT/PER HT/PER/DIR
                 (UTC) (F)     (DEG/KT/KT) (MB)    (FT/S) (FT/S/D)
WINYAH BAY       1445   83     330/  6     1018.0
LAKE MURRAY      NOT AVBL
ACE BASIN NERRS  NOT AVBL
FORT PULASKI     1548   82 85  310/  8/ 11 1018.9F
SAPELO ISLAND    1500   84     280/  6     1019.0

$$

ANZ835-935-AMZ111-154-330-350-352-354-370-450-454-472-251700-
...C-MAN AND BUOY OBSERVATIONS...

STATION/POSITION TIME  TEMP    WIND        PRES    WAVE   SWELL
                       AIR SEA DIR/SP/G            HT/PER HT/PER/DIR
                 (UTC) (F)     (DEG/KT/KT) (MB)    (FT/S) (FT/S/D)
BUOY 41004       1550   81 83  250/ 10/ 14 1018.0R   3/ 6   2/180/ 6
BUOY 41008       1450   80 81  250/ 10/ 12 1018.7    2/ 3   2/ 80/ 8
FOLLY BEACH CMAN 1500   84     260/  3/  5 1018.8R
CAPERS NEARSHORE 1508   81 84  230/  8/ 12 1018.0R
FRIPP NEARSHORE  1508   81 84  250/  6/  8 1018.1R


STATION/POSITION TIME  TEMP    WIND        PRES    WAVE   SWELL
                       AIR SEA DIR/SP/G            HT/PER HT/PER/DIR
                 (UTC) (F)     (DEG/KT/KT) (MB)    (FT/S) (FT/S/D)
5E ST. MARYS GA  1530      80                N/A     2/ 9
FRYING PAN BUOY  1550   81 82  240/  8/ 10 1018.0R   4/ 7   3/170/ 7
BUOY 41025       1550   80 84  270/ 10/ 12 1017.3R   4/ 6   3/220/ 6
CAPE LOOKOUT NC  1500   82     250/ 10/ 12 1017.4R
BUOY 41002       1450   84 83  220/ 14/ 16 1020.3    5/ 6   2/100/11
BUOY 41010       1550   84 84  240/  6/  8 1020.9S   3/ 9   2/120/ 9
ST AUGUSTINE FL  1600   88 74  250/  4/  6 1020.7F


$$




USA.gov is the U.S. government's official web portal to all federal, state and local government web resources and services.